Weather History for Madera, CA

Change the Weather History Date:

Thursday, December 27, 2012

  Actual Average Record
Temperature  
Mean Temperature 43 °F 44 °F  
Max Temperature 51 °F 52 °F 69 °F (1999)
Min Temperature 34 °F 36 °F 25 °F (2011)
Degree Days  
Heating Degree Days 22    
Month to date heating degree days 436  
Since 1 July heating degree days 804  
Cooling Degree Days 0    
Month to date cooling degree days 0  
Year to date cooling degree days 1737  
Moisture  
Dew Point 40 °F    
Average Humidity 83    
Maximum Humidity 100    
Minimum Humidity 66    
Precipitation  
Precipitation 0.00 in 0.08 in 0.27 in (2004)
Month to date precipitation 2.52 1.42  
Year to date precipitation 10.92 11.74  
Since 1 July precipitation 4.70 3.74  
Snow  
Snow 0.00 in - - ()
Month to date snowfall 0.0  
Since 1 July snowfall 0.0  
Snow Depth 0.00 in    
Sea Level Pressure  
Sea Level Pressure 30.12 in    
Wind  
Wind Speed 4 mph (NW)    
Max Wind Speed 16 mph    
Max Gust Speed 39 mph    
Visibility 6 miles    
Events Fog    
T = Trace of Precipitation, MM = Missing Value Source: NWS Daily Summary

Daily Weather History Graph

Daily Weather History Graph

Search for Another Location

Airport:

Trip Planner

Search our weather history database for the weather conditions in past years. The results will help you decide how hot, cold, wet, or windy it might be!

Date:

Astronomy

Dec. 27, 2012 Rise Set
Actual Time 7:12 AM PST 4:51 PM PST
Civil Twilight 6:43 AM PST 5:20 PM PST
Nautical Twilight 6:11 AM PST 5:52 PM PST
Astronomical Twilight 5:39 AM PST 6:24 PM PST
Moon 4:37 PM PST (12/27) 6:28 AM PST (12/27)
Length of Visible Light 10h 36m
Length of Day
9h 38m
Full, 100% of the Moon is Illuminated
Dec 27
Full
Dec 28
Full
Jan 4
Last Quarter
Jan 11
New
Jan 18
First Quarter

Hourly Weather History & Observations

Time (PST) Temp. Windchill Dew Point Humidity Pressure Visibility Wind Dir Wind Speed Gust Speed Precip Events Conditions
12:53 AM 45.0 °F - 44.1 °F 97% 30.09 in 10.0 mi Calm Calm - 0.01 in   Overcast
1:08 AM 44.6 °F - 44.6 °F 100% 30.09 in 10.0 mi Calm Calm - N/A   Mostly Cloudy
1:38 AM 42.8 °F - 42.8 °F 100% 30.09 in 1.8 mi Calm Calm - N/A   Scattered Clouds
1:49 AM 42.8 °F - 42.8 °F 100% 30.09 in 0.8 mi Calm Calm - N/A   Mostly Cloudy
1:53 AM 43.0 °F - 43.0 °F 100% 30.09 in 1.2 mi Calm Calm - N/A   Mostly Cloudy
1:56 AM 42.8 °F - 42.8 °F 100% 30.09 in 4.0 mi Calm Calm - N/A   Scattered Clouds
2:36 AM 42.8 °F - 41.0 °F 93% 30.09 in 1.5 mi Calm Calm - N/A   Partly Cloudy
2:53 AM 42.1 °F - 41.0 °F 96% 30.09 in 10.0 mi Calm Calm - N/A   Mostly Cloudy
3:53 AM 42.1 °F - 42.1 °F 100% 30.09 in 5.0 mi Calm Calm - N/A   Overcast
4:18 AM 42.8 °F - 42.8 °F 100% 30.08 in 1.8 mi Calm Calm - N/A   Overcast
4:33 AM 41.0 °F - 41.0 °F 100% 30.09 in 0.5 mi Calm Calm - N/A Fog Fog
4:53 AM 39.9 °F - 39.9 °F 100% 30.09 in 0.2 mi Calm Calm - N/A Fog Fog
5:10 AM 41.0 °F - 39.2 °F 93% 30.08 in 0.5 mi Calm Calm - N/A Fog Fog
5:17 AM 39.2 °F - 39.2 °F 100% 30.08 in 0.2 mi Calm Calm - N/A Fog Fog
5:53 AM 37.0 °F 34.5 °F 37.0 °F 100% 30.09 in 0.5 mi WNW 3.5 mph - N/A Fog Fog
6:17 AM 39.2 °F 35.9 °F 37.4 °F 93% 30.10 in 1.0 mi NW 4.6 mph - N/A   Clear
6:20 AM 39.2 °F 35.9 °F 37.4 °F 93% 30.10 in 3.0 mi NW 4.6 mph - N/A   Clear
6:53 AM 39.9 °F 37.8 °F 39.0 °F 97% 30.11 in 10.0 mi NW 3.5 mph - N/A   Clear
7:53 AM 39.9 °F 37.8 °F 39.0 °F 97% 30.12 in 9.0 mi NW 3.5 mph - N/A   Clear
8:53 AM 43.0 °F - 42.1 °F 97% 30.13 in 8.0 mi Calm Calm - N/A   Clear
9:24 AM 44.6 °F 41.4 °F 42.8 °F 93% 30.15 in 10.0 mi NNW 5.8 mph - N/A   Partly Cloudy
9:53 AM 46.9 °F - 43.0 °F 86% 30.16 in 10.0 mi NW 5.8 mph - N/A   Partly Cloudy
10:53 AM 48.9 °F - 42.1 °F 77% 30.14 in 10.0 mi NW 9.2 mph - N/A   Partly Cloudy
11:06 AM 48.2 °F - 41.0 °F 76% 30.14 in 10.0 mi North 6.9 mph - N/A   Mostly Cloudy
11:53 AM 48.0 °F - 39.9 °F 74% 30.12 in 10.0 mi NNW 8.1 mph - N/A   Overcast
12:53 PM 48.9 °F - 41.0 °F 74% 30.10 in 10.0 mi NNW 5.8 mph - N/A   Overcast
1:09 PM 48.2 °F - 41.0 °F 76% 30.09 in 10.0 mi NW 5.8 mph - N/A   Overcast
1:53 PM 50.0 °F - 42.1 °F 74% 30.10 in 10.0 mi NW 8.1 mph 20.7 mph N/A   Overcast
2:53 PM 50.0 °F - 39.0 °F 66% 30.11 in 10.0 mi WNW 12.7 mph - N/A   Scattered Clouds
3:24 PM 48.2 °F - 39.2 °F 71% 30.11 in 10.0 mi WNW 9.2 mph - N/A   Mostly Cloudy
3:53 PM 48.9 °F - 39.9 °F 71% 30.11 in 10.0 mi WNW 8.1 mph - N/A   Scattered Clouds
4:53 PM 45.0 °F 40.6 °F 39.0 °F 80% 30.12 in 10.0 mi North 8.1 mph - N/A   Clear
5:53 PM 42.1 °F 39.2 °F 39.0 °F 89% 30.14 in 10.0 mi West 4.6 mph - N/A   Clear
6:53 PM 41.0 °F 36.4 °F 37.9 °F 89% 30.16 in 10.0 mi NW 6.9 mph - N/A   Clear
7:53 PM 39.9 °F - 37.9 °F 93% 30.17 in 10.0 mi Calm Calm - N/A   Clear
8:53 PM 37.9 °F 35.5 °F 36.0 °F 93% 30.17 in 5.0 mi WNW 3.5 mph - N/A   Clear
9:53 PM 36.0 °F - 34.0 °F 93% 30.19 in 5.0 mi Calm Calm - N/A   Clear
10:26 PM 35.6 °F - 35.6 °F 100% 30.19 in 1.8 mi Calm Calm - N/A   Clear
10:39 PM 35.6 °F - 35.6 °F 100% 30.19 in 3.0 mi Calm Calm - N/A   Clear
10:53 PM 35.1 °F - 34.0 °F 96% 30.19 in 5.0 mi Calm Calm - N/A   Clear
11:40 PM 35.6 °F - 33.8 °F 93% 30.20 in 2.5 mi Calm Calm - N/A   Clear
11:53 PM 35.1 °F - 34.0 °F 96% 30.21 in 2.5 mi Calm Calm - N/A   Clear